Weather History for Branson, MO

Change the Weather History Date:

Saturday, December 29, 2012

  Actual Average (KHRO) Record (KHRO)
Temperature  
Mean Temperature 26 °F 36 °F  
Max Temperature 32 °F 46 °F 69 °F (1984)
Min Temperature 21 °F 26 °F -2 °F (1983)
Degree Days  
Heating Degree Days 38 29  
Month to date heating degree days 777  
Since 1 July heating degree days 1541  
Cooling Degree Days 0 0  
Month to date cooling degree days 0  
Year to date cooling degree days 1416  
Moisture  
Dew Point 16 °F    
Average Humidity 64    
Maximum Humidity 86    
Minimum Humidity 51    
Precipitation  
Precipitation 0.00 in 0.09 in 0.81 in (1969)
Month to date precipitation 3.02  
Year to date precipitation 43.96  
Snow  
Snow 0.00 in 0.10 in 3.00 in (1969)
Month to date snowfall 1.1  
Since 1 July snowfall 1.6  
Snow Depth -    
Sea Level Pressure  
Sea Level Pressure 30.21 in    
Wind  
Wind Speed 10 mph (West)    
Max Wind Speed 17 mph    
Max Gust Speed 22 mph    
Visibility 9 miles    
Events Thunderstorm    
T = Trace of Precipitation, MM = Missing Value Source: NWS Daily Summary

Daily Weather History Graph

Daily Weather History Graph

Search for Another Location

Airport:

Trip Planner

Search our weather history database for the weather conditions in past years. The results will help you decide how hot, cold, wet, or windy it might be!

Date:

Astronomy

Dec. 29, 2012 Rise Set
Actual Time 7:24 AM CST 5:06 PM CST
Civil Twilight 6:55 AM CST 5:34 PM CST
Nautical Twilight 6:23 AM CST 6:07 PM CST
Astronomical Twilight 5:51 AM CST 6:38 PM CST
Moon 6:36 PM CST (12/29) 8:00 AM CST (12/29)
Length of Visible Light 10h 39m
Length of Day
9h 41m
Full, 98% of the Moon is Illuminated
Dec 29
Full
Jan 4
Last Quarter
Jan 11
New
Jan 18
First Quarter
Jan 26
Full

Hourly Weather History & Observations

Time (CST) Temp. Windchill Dew Point Humidity Pressure Visibility Wind Dir Wind Speed Gust Speed Precip Events Conditions
12:15 AM 28.4 °F 17.5 °F 19.4 °F 69% 30.02 in 10.0 mi NW 13.8 mph - N/A   Overcast
12:35 AM 26.6 °F 17.5 °F 17.6 °F 69% 30.02 in 10.0 mi WNW 9.2 mph 19.6 mph N/A   Mostly Cloudy
12:55 AM 26.6 °F 16.2 °F 17.6 °F 69% 30.02 in 10.0 mi NW 11.5 mph 18.4 mph N/A   Overcast
1:15 AM 26.6 °F 15.7 °F 15.8 °F 64% 30.02 in 10.0 mi WNW 12.7 mph 18.4 mph N/A   Overcast
1:35 AM 26.6 °F 16.8 °F 15.8 °F 64% 30.03 in 10.0 mi WNW 10.4 mph 18.4 mph N/A   Overcast
1:55 AM 26.6 °F 15.2 °F 15.8 °F 64% 30.04 in 10.0 mi NW 13.8 mph 20.7 mph N/A Thunderstorm Overcast
2:15 AM 26.6 °F 15.7 °F 15.8 °F 64% 30.05 in 10.0 mi WNW 12.7 mph 18.4 mph N/A   Overcast
2:35 AM 26.6 °F 16.8 °F 14.0 °F 59% 30.05 in 10.0 mi NW 10.4 mph 19.6 mph N/A   Overcast
2:55 AM 24.8 °F 14.6 °F 14.0 °F 64% 30.06 in 10.0 mi NW 10.4 mph 18.4 mph N/A   Overcast
3:15 AM 23.0 °F 12.4 °F 15.8 °F 74% 30.06 in 10.0 mi WNW 10.4 mph 17.3 mph N/A   Mostly Cloudy
3:35 AM 23.0 °F 10.6 °F 15.8 °F 74% 30.07 in 8.0 mi WNW 13.8 mph 18.4 mph N/A   Partly Cloudy
3:55 AM 23.0 °F 10.1 °F 14.0 °F 68% 30.08 in 9.0 mi NW 15.0 mph 19.6 mph N/A   Partly Cloudy
4:15 AM 23.0 °F 11.7 °F 14.0 °F 68% 30.09 in 9.0 mi NW 11.5 mph 21.9 mph N/A   Mostly Cloudy
4:35 AM 23.0 °F 13.1 °F 14.0 °F 68% 30.09 in 9.0 mi NW 9.2 mph 19.6 mph N/A   Mostly Cloudy
4:55 AM 23.0 °F 11.7 °F 14.0 °F 68% 30.10 in 8.0 mi NW 11.5 mph 18.4 mph N/A   Mostly Cloudy
5:15 AM 23.0 °F 13.1 °F 14.0 °F 68% 30.11 in 8.0 mi NW 9.2 mph - N/A   Mostly Cloudy
5:35 AM 23.0 °F 13.1 °F 14.0 °F 68% 30.11 in 9.0 mi NW 9.2 mph 18.4 mph N/A   Scattered Clouds
6:50 AM 21.2 °F 10.1 °F 17.6 °F 86% 30.16 in 8.0 mi NW 10.4 mph 18.4 mph N/A   Overcast
7:55 AM 23.0 °F 9.2 °F 14.0 °F 68% 30.20 in 8.0 mi WNW 17.3 mph - N/A   Overcast
8:47 AM 23.0 °F 13.1 °F 14.0 °F 68% 30.23 in 8.0 mi WNW 9.2 mph 17.3 mph N/A   Overcast
9:55 AM 23.0 °F 12.4 °F 15.8 °F 74% 30.25 in 7.0 mi WNW 10.4 mph 17.3 mph N/A   Mostly Cloudy
10:55 AM 26.6 °F 17.5 °F 15.8 °F 64% 30.28 in 7.0 mi WNW 9.2 mph 17.3 mph N/A   Mostly Cloudy
11:45 AM 26.6 °F 17.5 °F 15.8 °F 64% 30.27 in 8.0 mi WNW 9.2 mph - N/A   Scattered Clouds
12:48 PM 28.4 °F 19.1 °F 15.8 °F 59% 30.26 in 8.0 mi West 10.4 mph - N/A   Partly Cloudy
1:53 PM 32.0 °F 23.0 °F 15.8 °F 51% 30.24 in 10.0 mi WNW 11.5 mph 17.3 mph N/A   Clear
2:58 PM 32.0 °F 24.2 °F 15.8 °F 51% 30.26 in 10.0 mi West 9.2 mph - N/A   Clear
3:55 PM 32.0 °F 24.8 °F 15.8 °F 51% 30.29 in 10.0 mi West 8.1 mph - N/A   Clear
4:53 PM 32.0 °F 27.5 °F 15.8 °F 51% 30.30 in 10.0 mi West 4.6 mph - N/A   Clear
5:45 PM 32.0 °F 27.5 °F 15.8 °F 51% 30.31 in 10.0 mi WNW 4.6 mph - N/A   Clear
7:45 PM 28.4 °F 23.3 °F 15.8 °F 59% 30.34 in 10.0 mi WSW 4.6 mph - N/A   Clear
8:15 PM 26.6 °F 22.6 °F 15.8 °F 64% 30.33 in 10.0 mi West 3.5 mph - N/A   Clear
8:35 PM 26.6 °F 20.0 °F 15.8 °F 64% 30.34 in 10.0 mi West 5.8 mph - N/A   Clear
8:45 PM 26.6 °F 21.2 °F 15.8 °F 64% 30.34 in 10.0 mi WSW 4.6 mph - N/A   Clear
8:55 PM 26.6 °F 22.6 °F 15.8 °F 64% 30.35 in 10.0 mi WSW 3.5 mph - N/A   Clear
9:15 PM 26.6 °F 22.6 °F 15.8 °F 64% 30.35 in 10.0 mi WSW 3.5 mph - N/A   Clear
9:35 PM 26.6 °F 21.2 °F 15.8 °F 64% 30.35 in 10.0 mi SW 4.6 mph - N/A   Clear
9:55 PM 26.6 °F 19.1 °F 15.8 °F 64% 30.35 in 10.0 mi SW 6.9 mph - N/A   Clear
10:15 PM 26.6 °F 19.1 °F 15.8 °F 64% 30.36 in 10.0 mi SW 6.9 mph - N/A   Clear
10:35 PM 26.6 °F 19.1 °F 15.8 °F 64% 30.37 in 10.0 mi SW 6.9 mph - N/A   Clear
10:55 PM 26.6 °F 19.1 °F 15.8 °F 64% 30.37 in 10.0 mi SW 6.9 mph - N/A   Clear
11:15 PM 26.6 °F 20.0 °F 15.8 °F 64% 30.37 in 10.0 mi SW 5.8 mph - N/A   Clear
11:35 PM 26.6 °F 21.2 °F 15.8 °F 64% 30.38 in 10.0 mi SW 4.6 mph - N/A   Clear
11:55 PM 26.6 °F 21.2 °F 15.8 °F 64% 30.38 in 10.0 mi SW 4.6 mph - N/A   Clear